STARLINK-35450, 65868

Orbit data source: Space-Track

STARLINK-35450, 65868 is a payload satellite owned by SpaceX/Seattle (US) in LEO that was launched on Fri, 03 Oct 2025 UTC via an FALCON 9 launch vehicle from the Air Force Western Test Range (AFWTR). Payload-class satellites include a variety of spacecraft equipped with specific instruments for various scientific and technological missions. These include communications satellites like Starlink; space stations such as the ISS; scientific satellites like the Hubble; Earth observation satellites from companies like Planet Labs, Umbra, and HawkEye 360; GPS; miniature CubeSats for education and research; and military/defense satellites.

Loading next visibility...
Identifier
65868, 2025-223Q
Orbit
LEO
Country
Flag of USUS
Related business
Manufacturer
SpaceX/Seattle
Mission
Operational spacecraft
Bus & Motor
STARLINK V2MO, Unknown motor
Mass
575 kg wet, ~530 kg dry
Launch date (UTC)
2025-10-03 (2 weeks ago)
Launch vehicle
FALCON 9
Launch site
Air Force Western Test Range (AFWTR)
Object type
Payload
Rocket body
Debris
Shape & HBR
Unknown
Radar Cross Section
RCS unknown

Expand to show TLE details & history
Last TLE update: 23 hours ago

TLE from 23 hours ago
0 STARLINK-35450
1 65868U 25223Q   25290.50820258  .02693559  00000-0  15552-1 0  9993
2 65868  53.1503 243.5219 0002061 106.0079 254.1169 15.74761827  2222
Epoch: 2025-10-17T12:11Z
TLE epoch observation values (Epoch: 2025-10-17T12:11:48.702Z)
Latitude
0.00003°
Longitude
34.31643°
Altitude
346.604 km
Speed
7.702 km/s
True Right ascension
16h 14m 05s
True Declination
0° 00' 00"
Sunlit
Object was in daylight at epoch
Visualization orbit readout
Latitude
Unknown
Longitude
Unknown
Altitude
Unknown
Speed
Unknown
Apparent Right ascension
Unknown
Apparent Declination
Unknown
Sunlit
N/A
Visualization observer readout
Local Sidereal Time
05:51:00
Azimuth
Unknown
Elevation
Unknown
Doppler factor
Unknown
Orbital elements
Apogee altitude
346.958 km
Perigee altitude
344.186 km
Semi-major axis
6,723.709 km
Eccentricity
0.00021
Inclination
53.1503°
RAAN
243.5219°
Arg. of periapsis
106.0079°
True anomaly
254.09419°
Mean anomaly
254.1169°
Eccentric anomaly
254.10554°
Mean motion
3.93668 °/min
Orbital period
91.45 mins
BSTAR
0.015552
Loading maneuver chart data...
Computing Atmospheric mass density...
Loading historical data...
Loading historical data...
Loading historical data...
Loading historical data...
Loading historical data...
Loading historical data...
Loading historical data...

Documentation

Showing up to 5 results
|